Location: ??????????
(54.4061°N, 22.6114°E)
Time: 17:20:33
(UTC+00:00)

STARLINK-81 - Pass Details

Date: 23 October 2019
Orbit: 548 x 551 km, 53.0° (Epoch: 14 November)

Event Time Altitude Azimuth Distance (km) Brightness Sun altitude
Rises 17:32:17 0° 279° (W) 2,721 8.8 -20.7°
Reaches altitude 10° 17:34:33 10° 275° (W) 1,826 7.5 -21.0°
Maximum altitude 17:38:36 55° 198° (SSW) 664 4.0 -21.6°
Enters shadow 17:39:03 52° 171° (S) 689 3.9 -21.6°
